Time,TemperatureF,DewpointF,PressureIn,WindDirection,WindDirectionDegrees,WindSpeedMPH,WindSpeedGustMPH,Humidity,HourlyPrecipIn,Conditions,Clouds,dailyrainin,SolarRadiationWatts/m^2,SoftwareType,DateUTC
2013-07-15 00:01:00,75.0,71.0,-100.00,WNW,283,1.0,6.0,88,0.00,,,0.00,0.000000,,2013-07-15 04:01:00,
2013-07-15 00:22:00,75.0,71.0,-100.00,WNW,283,1.0,6.0,88,0.00,,,0.00,0.000000,,2013-07-15 04:22:00,
2013-07-15 00:33:00,75.0,71.0,-100.00,WNW,283,1.0,6.0,88,0.00,,,0.00,0.000000,,2013-07-15 04:33:00,
2013-07-15 00:42:00,75.0,71.0,-100.00,WNW,283,1.0,6.0,88,0.00,,,0.00,0.000000,,2013-07-15 04:42:00,
2013-07-15 00:54:00,75.0,71.0,-100.00,WNW,283,1.0,6.0,88,0.00,,,0.00,0.000000,,2013-07-15 04:54:00,
2013-07-15 01:01:00,75.0,72.0,-100.00,WNW,290,1.0,7.0,89,0.00,,,0.00,0.000000,,2013-07-15 05:01:00,
2013-07-15 01:22:00,75.0,72.0,-100.00,WNW,290,1.0,7.0,89,0.00,,,0.00,0.000000,,2013-07-15 05:22:00,
2013-07-15 01:32:00,75.0,72.0,-100.00,WNW,290,1.0,7.0,89,0.00,,,0.00,0.000000,,2013-07-15 05:32:00,
2013-07-15 01:43:00,75.0,72.0,-100.00,WNW,290,1.0,7.0,89,0.00,,,0.00,0.000000,,2013-07-15 05:43:00,
2013-07-15 01:53:00,75.0,72.0,-100.00,WNW,290,1.0,7.0,89,0.00,,,0.00,0.000000,,2013-07-15 05:53:00,
2013-07-15 02:01:00,75.0,72.0,-100.00,NW,304,1.0,5.0,89,0.00,,,0.00,0.000000,,2013-07-15 06:01:00,
2013-07-15 02:22:00,75.0,72.0,-100.00,NW,304,1.0,5.0,89,0.00,,,0.00,0.000000,,2013-07-15 06:22:00,
2013-07-15 02:32:00,75.0,72.0,-100.00,NW,304,1.0,5.0,89,0.00,,,0.00,0.000000,,2013-07-15 06:32:00,
2013-07-15 02:42:00,75.0,72.0,-100.00,NW,304,1.0,5.0,89,0.00,,,0.00,0.000000,,2013-07-15 06:42:00,
2013-07-15 02:53:00,75.0,72.0,-100.00,NW,304,1.0,5.0,89,0.00,,,0.00,0.000000,,2013-07-15 06:53:00,
2013-07-15 03:01:00,74.0,72.0,-100.00,West,279,0.0,4.0,93,0.00,,,0.00,0.000000,,2013-07-15 07:01:00,
2013-07-15 03:22:00,74.0,72.0,-100.00,West,279,0.0,4.0,93,0.00,,,0.00,0.000000,,2013-07-15 07:22:00,
2013-07-15 03:33:00,74.0,72.0,-100.00,West,279,0.0,4.0,93,0.00,,,0.00,0.000000,,2013-07-15 07:33:00,
2013-07-15 03:44:00,74.0,72.0,-100.00,West,279,0.0,4.0,93,0.00,,,0.00,0.000000,,2013-07-15 07:44:00,
2013-07-15 03:53:00,74.0,72.0,-100.00,West,279,0.0,4.0,93,0.00,,,0.00,0.000000,,2013-07-15 07:53:00,
2013-07-15 04:01:00,74.0,72.0,-100.00,WNW,286,0.0,3.0,92,0.00,,,0.00,0.000000,,2013-07-15 08:01:00,
2013-07-15 04:22:00,74.0,72.0,-100.00,WNW,286,0.0,3.0,92,0.00,,,0.00,0.000000,,2013-07-15 08:22:00,
2013-07-15 04:32:00,74.0,72.0,-100.00,WNW,286,0.0,3.0,92,0.00,,,0.00,0.000000,,2013-07-15 08:32:00,
2013-07-15 04:43:00,74.0,72.0,-100.00,WNW,286,0.0,3.0,92,0.00,,,0.00,0.000000,,2013-07-15 08:43:00,
2013-07-15 04:53:00,74.0,72.0,-100.00,WNW,286,0.0,3.0,92,0.00,,,0.00,0.000000,,2013-07-15 08:53:00,
2013-07-15 05:01:00,75.0,72.0,-100.00,WNW,287,1.0,5.0,90,0.00,,,0.00,0.000000,,2013-07-15 09:01:00,
2013-07-15 05:32:00,75.0,72.0,-100.00,WNW,287,1.0,5.0,90,0.00,,,0.00,0.000000,,2013-07-15 09:32:00,
2013-07-15 05:43:00,75.0,72.0,-100.00,WNW,287,1.0,5.0,90,0.00,,,0.00,0.000000,,2013-07-15 09:43:00,
2013-07-15 05:52:00,75.0,72.0,-100.00,WNW,287,1.0,5.0,90,0.00,,,0.00,0.000000,,2013-07-15 09:52:00,
2013-07-15 06:01:00,74.0,71.0,-100.00,WNW,291,0.0,5.0,89,0.00,,,0.00,3.000000,,2013-07-15 10:01:00,
2013-07-15 06:22:00,74.0,71.0,-100.00,WNW,291,0.0,5.0,89,0.00,,,0.00,3.000000,,2013-07-15 10:22:00,
2013-07-15 06:32:00,74.0,71.0,-100.00,WNW,291,0.0,5.0,89,0.00,,,0.00,3.000000,,2013-07-15 10:32:00,
2013-07-15 06:43:00,74.0,71.0,-100.00,WNW,291,0.0,5.0,89,0.00,,,0.00,3.000000,,2013-07-15 10:43:00,
2013-07-15 06:53:00,74.0,71.0,-100.00,WNW,291,0.0,5.0,89,0.00,,,0.00,3.000000,,2013-07-15 10:53:00,
2013-07-15 07:01:00,79.0,73.0,-100.00,WNW,295,0.0,4.0,82,0.00,,,0.00,47.000000,,2013-07-15 11:01:00,
2013-07-15 07:22:00,79.0,73.0,-100.00,WNW,295,0.0,4.0,82,0.00,,,0.00,47.000000,,2013-07-15 11:22:00,
2013-07-15 07:32:00,79.0,73.0,-100.00,WNW,295,0.0,4.0,82,0.00,,,0.00,47.000000,,2013-07-15 11:32:00,
2013-07-15 07:42:00,79.0,73.0,-100.00,WNW,295,0.0,4.0,82,0.00,,,0.00,47.000000,,2013-07-15 11:42:00,
2013-07-15 07:52:00,79.0,73.0,-100.00,WNW,295,0.0,4.0,82,0.00,,,0.00,47.000000,,2013-07-15 11:52:00,
2013-07-15 08:01:00,82.0,75.0,-100.00,NNW,341,0.0,4.0,79,0.00,,,0.00,93.000000,,2013-07-15 12:01:00,
2013-07-15 08:22:00,82.0,75.0,-100.00,NNW,341,0.0,4.0,79,0.00,,,0.00,93.000000,,2013-07-15 12:22:00,
2013-07-15 08:33:00,82.0,75.0,-100.00,NNW,341,0.0,4.0,79,0.00,,,0.00,93.000000,,2013-07-15 12:33:00,
2013-07-15 08:42:00,82.0,75.0,-100.00,NNW,341,0.0,4.0,79,0.00,,,0.00,93.000000,,2013-07-15 12:42:00,
2013-07-15 08:53:00,82.0,75.0,-100.00,NNW,341,0.0,4.0,79,0.00,,,0.00,93.000000,,2013-07-15 12:53:00,
2013-07-15 09:01:00,88.0,75.0,-100.00,NNW,339,1.0,7.0,66,0.00,,,0.00,215.000000,,2013-07-15 13:01:00,
2013-07-15 09:33:00,88.0,75.0,-100.00,NNW,339,1.0,7.0,66,0.00,,,0.00,215.000000,,2013-07-15 13:33:00,
2013-07-15 09:43:00,88.0,75.0,-100.00,NNW,339,1.0,7.0,66,0.00,,,0.00,215.000000,,2013-07-15 13:43:00,
2013-07-15 09:53:00,88.0,75.0,-100.00,NNW,339,1.0,7.0,66,0.00,,,0.00,215.000000,,2013-07-15 13:53:00,
2013-07-15 10:01:00,89.0,73.0,-100.00,NNW,334,1.0,5.0,60,0.00,,,0.00,269.000000,,2013-07-15 14:01:00,
2013-07-15 10:33:00,89.0,73.0,-100.00,NNW,334,1.0,5.0,60,0.00,,,0.00,269.000000,,2013-07-15 14:33:00,
2013-07-15 10:43:00,89.0,73.0,-100.00,NNW,334,1.0,5.0,60,0.00,,,0.00,269.000000,,2013-07-15 14:43:00,
2013-07-15 11:01:00,91.0,74.0,-100.00,NNE,23,2.0,8.0,58,0.00,,,0.00,320.000000,,2013-07-15 15:01:00,
2013-07-15 11:41:00,91.0,74.0,-100.00,NNE,23,2.0,8.0,58,0.00,,,0.00,320.000000,,2013-07-15 15:41:00,
2013-07-15 11:53:00,91.0,74.0,-100.00,NNE,23,2.0,8.0,58,0.00,,,0.00,320.000000,,2013-07-15 15:53:00,
2013-07-15 12:01:00,93.0,75.0,-100.00,NW,321,1.0,7.0,56,0.00,,,0.00,359.000000,,2013-07-15 16:01:00,
2013-07-15 12:53:00,93.0,75.0,-100.00,NW,321,1.0,7.0,56,0.00,,,0.00,359.000000,,2013-07-15 16:53:00,
2013-07-15 13:01:00,95.0,75.0,-100.00,WNW,300,2.0,6.0,52,0.00,,,0.00,378.000000,,2013-07-15 17:01:00,
2013-07-15 13:37:00,95.0,75.0,-100.00,WNW,300,2.0,6.0,52,0.00,,,0.00,378.000000,,2013-07-15 17:37:00,
2013-07-15 13:51:00,95.0,75.0,-100.00,WNW,300,2.0,6.0,52,0.00,,,0.00,378.000000,,2013-07-15 17:51:00,
2013-07-15 14:00:00,95.0,75.0,-100.00,WNW,300,2.0,6.0,52,0.00,,,0.00,378.000000,,2013-07-15 18:00:00,
2013-07-15 14:01:00,95.0,74.0,-100.00,NNW,328,2.0,8.0,51,0.00,,,0.00,376.000000,,2013-07-15 18:01:00,
2013-07-15 14:45:00,95.0,74.0,-100.00,NNW,328,2.0,8.0,51,0.00,,,0.00,376.000000,,2013-07-15 18:45:00,
2013-07-15 14:59:00,95.0,74.0,-100.00,NNW,328,2.0,8.0,51,0.00,,,0.00,376.000000,,2013-07-15 18:59:00,
2013-07-15 15:01:00,95.0,74.0,-100.00,NW,322,2.0,9.0,51,0.00,,,0.00,343.000000,,2013-07-15 19:01:00,
2013-07-15 15:39:00,95.0,74.0,-100.00,NW,322,2.0,9.0,51,0.00,,,0.00,343.000000,,2013-07-15 19:39:00,
2013-07-15 15:57:00,95.0,74.0,-100.00,NW,322,2.0,9.0,51,0.00,,,0.00,343.000000,,2013-07-15 19:57:00,
2013-07-15 16:01:00,94.0,72.0,-100.00,NW,310,2.0,9.0,50,0.00,,,0.00,288.000000,,2013-07-15 20:01:00,
2013-07-15 16:37:00,94.0,72.0,-100.00,NW,310,2.0,9.0,50,0.00,,,0.00,288.000000,,2013-07-15 20:37:00,
2013-07-15 16:43:00,94.0,72.0,-100.00,NW,310,2.0,9.0,50,0.00,,,0.00,288.000000,,2013-07-15 20:43:00,
2013-07-15 16:59:00,94.0,72.0,-100.00,NW,310,2.0,9.0,50,0.00,,,0.00,288.000000,,2013-07-15 20:59:00,
2013-07-15 17:01:00,92.0,70.0,-100.00,NW,320,2.0,9.0,49,0.00,,,0.00,246.000000,,2013-07-15 21:01:00,
2013-07-15 17:40:00,92.0,70.0,-100.00,NW,320,2.0,9.0,49,0.00,,,0.00,246.000000,,2013-07-15 21:40:00,
2013-07-15 17:48:00,92.0,70.0,-100.00,NW,320,2.0,9.0,49,0.00,,,0.00,246.000000,,2013-07-15 21:48:00,
2013-07-15 18:01:00,90.0,69.0,-100.00,NW,315,1.0,7.0,50,0.00,,,0.00,203.000000,,2013-07-15 22:01:00,
2013-07-15 18:22:00,90.0,69.0,-100.00,NW,315,1.0,7.0,50,0.00,,,0.00,203.000000,,2013-07-15 22:22:00,
2013-07-15 18:44:00,90.0,69.0,-100.00,NW,315,1.0,7.0,50,0.00,,,0.00,203.000000,,2013-07-15 22:44:00,
2013-07-15 18:54:00,90.0,69.0,-100.00,NW,315,1.0,7.0,50,0.00,,,0.00,203.000000,,2013-07-15 22:54:00,
2013-07-15 19:01:00,85.0,69.0,-100.00,WNW,303,0.0,6.0,59,0.00,,,0.00,50.000000,,2013-07-15 23:01:00,
2013-07-15 19:30:00,85.0,69.0,-100.00,WNW,303,0.0,6.0,59,0.00,,,0.00,50.000000,,2013-07-15 23:30:00,
2013-07-15 19:40:00,85.0,69.0,-100.00,WNW,303,0.0,6.0,59,0.00,,,0.00,50.000000,,2013-07-15 23:40:00,
2013-07-15 19:50:00,85.0,69.0,-100.00,WNW,303,0.0,6.0,59,0.00,,,0.00,50.000000,,2013-07-15 23:50:00,
2013-07-15 20:01:00,78.0,70.0,-100.00,NNE,18,0.0,0.0,76,0.00,,,0.00,3.000000,,2013-07-16 00:01:00,
2013-07-15 20:34:00,78.0,70.0,-100.00,NNE,18,0.0,0.0,76,0.00,,,0.00,3.000000,,2013-07-16 00:34:00,
2013-07-15 20:50:00,78.0,70.0,-100.00,NNE,18,0.0,0.0,76,0.00,,,0.00,3.000000,,2013-07-16 00:50:00,
2013-07-15 21:01:00,76.0,70.0,-100.00,North,0,0.0,0.0,81,0.00,,,0.00,1.000000,,2013-07-16 01:01:00,
2013-07-15 21:39:00,76.0,70.0,-100.00,North,0,0.0,0.0,81,0.00,,,0.00,1.000000,,2013-07-16 01:39:00,
2013-07-15 21:49:00,76.0,70.0,-100.00,North,0,0.0,0.0,81,0.00,,,0.00,1.000000,,2013-07-16 01:49:00,
2013-07-15 22:01:00,75.0,69.0,-100.00,North,351,0.0,0.0,81,0.00,,,0.00,0.000000,,2013-07-16 02:01:00,
2013-07-15 22:35:00,75.0,69.0,-100.00,North,351,0.0,0.0,81,0.00,,,0.00,0.000000,,2013-07-16 02:35:00,
2013-07-15 22:52:00,75.0,69.0,-100.00,North,351,0.0,0.0,81,0.00,,,0.00,0.000000,,2013-07-16 02:52:00,
2013-07-15 23:01:00,74.0,68.0,-100.00,North,0,0.0,0.0,83,0.00,,,0.00,0.000000,,2013-07-16 03:01:00,
2013-07-15 23:49:00,74.0,68.0,-100.00,North,0,0.0,0.0,83,0.00,,,0.00,0.000000,,2013-07-16 03:49:00,
2013-07-15 23:58:00,74.0,68.0,-100.00,North,0,0.0,0.0,83,0.00,,,0.00,0.000000,,2013-07-16 03:58:00,